Time,TemperatureF,DewpointF,PressureIn,WindDirection,WindDirectionDegrees,WindSpeedMPH,WindSpeedGustMPH,Humidity,HourlyPrecipIn,Conditions,Clouds,dailyrainin,SoftwareType,DateUTC
2013-09-26 00:01:00,65.0,57.6,29.93,South,180,0.0,0.4,77,0.00,,,0.00,WUHU216HW,2013-09-26 04:01:00,
2013-09-26 00:06:00,64.4,57.1,29.92,South,180,0.0,0.4,77,0.00,,,0.00,WUHU216HW,2013-09-26 04:06:00,
2013-09-26 00:11:00,64.3,56.9,29.93,South,180,0.0,0.4,77,0.00,,,0.00,WUHU216HW,2013-09-26 04:11:00,
2013-09-26 00:16:00,64.1,56.7,29.93,South,180,0.0,0.4,77,0.00,,,0.00,WUHU216HW,2013-09-26 04:16:00,
2013-09-26 00:21:00,63.7,56.7,29.93,South,180,0.4,0.8,78,0.00,,,0.00,WUHU216HW,2013-09-26 04:21:00,
2013-09-26 00:26:00,63.7,56.7,29.93,South,180,0.0,0.8,78,0.00,,,0.00,WUHU216HW,2013-09-26 04:26:00,
2013-09-26 00:31:00,63.5,56.5,29.93,South,180,0.0,0.8,78,0.00,,,0.00,WUHU216HW,2013-09-26 04:31:00,
2013-09-26 00:36:00,63.5,56.5,29.93,South,180,0.0,0.0,78,0.00,,,0.00,WUHU216HW,2013-09-26 04:36:00,
2013-09-26 00:41:00,63.4,56.0,29.93,South,180,0.0,0.0,77,0.00,,,0.00,WUHU216HW,2013-09-26 04:41:00,
2013-09-26 00:46:00,63.4,56.0,29.92,South,180,0.0,0.0,77,0.00,,,0.00,WUHU216HW,2013-09-26 04:46:00,
2013-09-26 00:51:00,63.2,55.8,29.92,South,180,0.0,0.0,77,0.00,,,0.00,WUHU216HW,2013-09-26 04:51:00,
2013-09-26 00:56:00,63.2,55.8,29.92,South,180,0.0,0.0,77,0.00,,,0.00,WUHU216HW,2013-09-26 04:56:00,
2013-09-26 01:01:00,63.0,55.6,29.92,South,180,0.0,0.0,77,0.00,,,0.00,WUHU216HW,2013-09-26 05:01:00,
2013-09-26 01:06:00,63.0,55.6,29.92,South,180,0.0,0.0,77,0.00,,,0.00,WUHU216HW,2013-09-26 05:06:00,
2013-09-26 01:11:00,63.0,55.6,29.91,South,180,0.0,0.0,77,0.00,,,0.00,WUHU216HW,2013-09-26 05:11:00,
2013-09-26 01:16:00,62.8,55.4,29.92,South,180,0.0,0.0,77,0.00,,,0.00,WUHU216HW,2013-09-26 05:16:00,
2013-09-26 01:21:00,62.8,55.4,29.91,South,180,0.0,0.0,77,0.00,,,0.00,WUHU216HW,2013-09-26 05:21:00,
2013-09-26 01:26:00,62.8,55.4,29.91,South,180,0.0,0.0,77,0.00,,,0.00,WUHU216HW,2013-09-26 05:26:00,
2013-09-26 01:31:00,62.6,55.3,29.91,South,180,0.0,0.0,77,0.00,,,0.00,WUHU216HW,2013-09-26 05:31:00,
2013-09-26 01:36:00,62.5,55.4,29.91,South,180,0.0,0.0,78,0.00,,,0.00,WUHU216HW,2013-09-26 05:36:00,
2013-09-26 01:41:00,62.5,55.4,29.91,South,180,0.0,0.0,78,0.00,,,0.00,WUHU216HW,2013-09-26 05:41:00,
2013-09-26 01:46:00,62.3,55.3,29.91,South,180,0.0,0.0,78,0.00,,,0.00,WUHU216HW,2013-09-26 05:46:00,
2013-09-26 01:51:00,62.3,55.3,29.91,South,180,0.0,0.0,78,0.00,,,0.00,WUHU216HW,2013-09-26 05:51:00,
2013-09-26 01:56:00,62.3,55.3,29.91,South,180,0.0,0.0,78,0.00,,,0.00,WUHU216HW,2013-09-26 05:56:00,
2013-09-26 02:01:00,62.3,55.3,29.91,South,180,0.0,0.0,78,0.00,,,0.00,WUHU216HW,2013-09-26 06:01:00,
2013-09-26 02:06:00,62.5,55.4,29.91,South,180,0.0,0.0,78,0.00,,,0.00,WUHU216HW,2013-09-26 06:06:00,
2013-09-26 02:11:00,62.5,55.4,29.90,South,180,0.0,0.0,78,0.00,,,0.00,WUHU216HW,2013-09-26 06:11:00,
2013-09-26 02:16:00,62.3,55.6,29.90,South,180,0.0,0.0,79,0.00,,,0.00,WUHU216HW,2013-09-26 06:16:00,
2013-09-26 02:21:00,62.3,55.6,29.90,South,180,0.0,0.0,79,0.00,,,0.00,WUHU216HW,2013-09-26 06:21:00,
2013-09-26 02:26:00,62.3,55.6,29.90,South,180,0.0,0.0,79,0.00,,,0.00,WUHU216HW,2013-09-26 06:26:00,
2013-09-26 02:31:00,62.1,55.5,29.90,South,180,0.0,0.0,79,0.00,,,0.00,WUHU216HW,2013-09-26 06:31:00,
2013-09-26 02:45:00,62.1,55.5,29.90,South,180,0.0,0.0,79,0.00,,,0.00,WUHU216HW,2013-09-26 06:45:00,
2013-09-26 02:50:00,62.1,55.5,29.90,South,180,0.0,0.0,79,0.00,,,0.00,WUHU216HW,2013-09-26 06:50:00,
2013-09-26 02:55:00,62.1,55.5,29.90,South,180,0.0,0.0,79,0.00,,,0.00,WUHU216HW,2013-09-26 06:55:00,
2013-09-26 03:00:00,62.1,55.5,29.90,South,180,0.0,0.0,79,0.00,,,0.00,WUHU216HW,2013-09-26 07:00:00,